Private Wetterstation Wechselburg
Wetterdaten: Donnerstag / Freitag, 17.04.2015
Datum Zeit Temp. +2m Bodentemp. Temp.+5cm Temp. Wind Windchill X Diff Temp. Feuchte +2m Feuchte +5cm Sonnenschein Luftdruck Regen Wind Richtung Richtung Sonnenschein Taupunkt Windchill Windben
16.04.2015 01:00 11,3 C 22,8 C 10,6 C 11,0 C 10,5 C 0,0 C 67 % 72 % 0 % 1014,0 hPa 0,0 l/m 0,0 km/h (0 Bft) W 270 0 min 5,4 C 10,5 C 0,0 km/h (0 Bft)
16.04.2015 01:05 11,3 C 22,8 C 10,7 C 11,1 C 10,6 C 0,0 C 67 % 73 % 0 % 1014,0 hPa 0,0 l/m 0,0 km/h (0 Bft) S-SW 202 0 min 5,4 C 10,6 C 0,0 km/h (0 Bft)
16.04.2015 01:10 11,3 C 22,8 C 10,5 C 11,0 C 10,5 C 0,0 C 67 % 72 % 0 % 1014,0 hPa 0,0 l/m 0,0 km/h (0 Bft) SW 225 0 min 5,4 C 10,5 C 0,0 km/h (0 Bft)
16.04.2015 01:15 11,3 C 22,8 C 10,4 C 11,0 C 10,4 C 0,0 C 68 % 73 % 0 % 1014,0 hPa 0,0 l/m 0,0 km/h (0 Bft) SW 225 0 min 5,6 C 10,4 C 0,0 km/h (0 Bft)
16.04.2015 01:20 11,1 C 22,8 C 10,5 C 10,8 C 10,3 C 0,0 C 68 % 73 % 0 % 1014,1 hPa 0,0 l/m 0,0 km/h (0 Bft) W-SW 247 0 min 5,4 C 10,3 C 0,0 km/h (0 Bft)
16.04.2015 01:25 11,0 C 22,7 C 10,4 C 10,8 C 10,3 C 0,0 C 68 % 74 % 0 % 1014,1 hPa 0,0 l/m 0,0 km/h (0 Bft) SW 225 0 min 5,3 C 10,3 C 0,0 km/h (0 Bft)
16.04.2015 01:30 11,1 C 22,7 C 10,4 C 10,9 C 10,4 C 0,0 C 69 % 74 % 0 % 1014,1 hPa 0,0 l/m 0,0 km/h (0 Bft) SW 225 0 min 5,6 C 10,4 C 0,0 km/h (0 Bft)
16.04.2015 01:35 10,9 C 22,7 C 10,4 C 10,7 C 10,4 C 0,0 C 69 % 74 % 0 % 1014,1 hPa 0,0 l/m 0,0 km/h (0 Bft) NO 45 0 min 5,4 C 10,4 C 0,0 km/h (0 Bft)
16.04.2015 01:40 10,9 C 22,7 C 10,4 C 10,7 C 10,4 C 0,0 C 70 % 74 % 0 % 1013,7 hPa 0,0 l/m 0,0 km/h (0 Bft) W 270 0 min 5,6 C 10,4 C 0,0 km/h (0 Bft)
16.04.2015 01:45 10,9 C 22,7 C 10,4 C 10,8 C 10,6 C 0,0 C 70 % 75 % 0 % 1013,7 hPa 0,0 l/m 0,0 km/h (0 Bft) W-SW 247 0 min 5,6 C 10,6 C 0,0 km/h (0 Bft)
16.04.2015 01:50 10,9 C 22,7 C 10,4 C 10,8 C 10,6 C 0,0 C 70 % 75 % 0 % 1013,7 hPa 0,0 l/m 0,0 km/h (0 Bft) W 270 0 min 5,6 C 10,6 C 0,0 km/h (0 Bft)
16.04.2015 01:55 10,8 C 22,6 C 10,5 C 10,7 C 10,6 C 0,0 C 70 % 75 % 0 % 1013,7 hPa 0,0 l/m 0,0 km/h (0 Bft) W 270 0 min 5,6 C 10,6 C 0,0 km/h (0 Bft)
16.04.2015 02:00 10,8 C 22,6 C 10,5 C 10,7 C 10,6 C 0,0 C 71 % 75 % 0 % 1013,8 hPa 0,0 l/m 0,2 km/h (0 Bft) W 270 0 min 5,8 C 10,6 C 0,0 km/h (0 Bft)
16.04.2015 02:05 10,8 C 22,6 C 10,4 C 10,7 C 10,5 C 0,0 C 71 % 75 % 0 % 1013,8 hPa 0,0 l/m 0,2 km/h (0 Bft) W 270 0 min 5,8 C 10,5 C 0,0 km/h (0 Bft)
16.04.2015 02:10 10,8 C 22,6 C 10,4 C 10,7 C 10,4 C 0,0 C 71 % 76 % 0 % 1013,8 hPa 0,0 l/m 0,0 km/h (0 Bft) W 270 0 min 5,8 C 10,4 C 0,0 km/h (0 Bft)
16.04.2015 02:15 10,7 C 22,6 C 10,4 C 10,6 C 10,3 C 0,0 C 72 % 75 % 0 % 1013,8 hPa 0,0 l/m 0,0 km/h (0 Bft) N-NW 337 0 min 5,9 C 10,3 C 0,0 km/h (0 Bft)
16.04.2015 02:20 10,7 C 22,6 C 10,3 C 10,6 C 10,3 C 0,0 C 72 % 76 % 0 % 1013,9 hPa 0,0 l/m 0,0 km/h (0 Bft) W-SW 247 0 min 5,9 C 10,3 C 0,0 km/h (0 Bft)
16.04.2015 02:25 10,7 C 22,6 C 10,4 C 10,6 C 10,3 C 0,0 C 73 % 76 % 0 % 1013,9 hPa 0,0 l/m 0,0 km/h (0 Bft) W-SW 247 0 min 6,1 C 10,3 C 0,0 km/h (0 Bft)
16.04.2015 02:30 10,7 C 22,6 C 10,3 C 10,5 C 10,2 C 0,0 C 73 % 76 % 0 % 1013,9 hPa 0,0 l/m 0,0 km/h (0 Bft) NW 315 0 min 6,1 C 10,2 C 0,0 km/h (0 Bft)
16.04.2015 02:35 10,6 C 22,6 C 10,3 C 10,5 C 10,2 C 0,0 C 73 % 76 % 0 % 1013,9 hPa 0,0 l/m 0,0 km/h (0 Bft) NW 315 0 min 6,0 C 10,2 C 0,0 km/h (0 Bft)
16.04.2015 02:40 10,5 C 22,6 C 10,3 C 10,4 C 10,2 C 0,0 C 73 % 77 % 0 % 1013,7 hPa 0,0 l/m 0,2 km/h (0 Bft) W-SW 247 0 min 5,9 C 10,2 C 0,0 km/h (0 Bft)
16.04.2015 02:45 10,5 C 22,5 C 10,2 C 10,4 C 10,2 C 0,0 C 73 % 77 % 0 % 1013,7 hPa 0,0 l/m 0,2 km/h (0 Bft) O-NO 67 0 min 5,9 C 10,2 C 0,0 km/h (0 Bft)
16.04.2015 02:50 10,5 C 22,5 C 10,0 C 10,3 C 10,0 C 0,0 C 73 % 77 % 0 % 1013,7 hPa 0,0 l/m 0,0 km/h (0 Bft) S 180 0 min 5,9 C 10,0 C 0,0 km/h (0 Bft)
16.04.2015 02:55 10,4 C 22,5 C 9,9 C 10,2 C 9,8 C 0,0 C 74 % 77 % 0 % 1013,7 hPa 0,0 l/m 0,0 km/h (0 Bft) NO 45 0 min 6,0 C 9,8 C 0,0 km/h (0 Bft)
16.04.2015 03:00 10,5 C 22,5 C 9,9 C 10,3 C 9,8 C 0,0 C 74 % 77 % 0 % 1013,9 hPa 0,0 l/m 0,2 km/h (0 Bft) N-NO 22 0 min 6,1 C 9,8 C 0,0 km/h (0 Bft)
16.04.2015 03:05 10,4 C 22,5 C 9,9 C 10,2 C 9,7 C 0,0 C 74 % 78 % 0 % 1013,9 hPa 0,0 l/m 0,2 km/h (0 Bft) O-NO 67 0 min 6,0 C 9,7 C 0,0 km/h (0 Bft)
16.04.2015 03:10 10,4 C 22,5 C 9,9 C 10,2 C 9,8 C 0,0 C 74 % 78 % 0 % 1013,9 hPa 0,0 l/m 0,0 km/h (0 Bft) O-SO 112 0 min 6,0 C 9,8 C 0,0 km/h (0 Bft)
16.04.2015 03:15 10,4 C 22,5 C 9,7 C 10,2 C 9,8 C 0,0 C 75 % 78 % 0 % 1013,9 hPa 0,0 l/m 0,0 km/h (0 Bft) O-NO 67 0 min 6,2 C 9,8 C 0,0 km/h (0 Bft)
16.04.2015 03:20 10,4 C 22,4 C 9,7 C 10,2 C 9,7 C 0,0 C 75 % 78 % 0 % 1013,7 hPa 0,0 l/m 0,0 km/h (0 Bft) O 90 0 min 6,2 C 9,7 C 0,0 km/h (0 Bft)
16.04.2015 03:25 10,2 C 22,4 C 9,5 C 10,0 C 9,5 C 0,0 C 75 % 78 % 0 % 1013,7 hPa 0,0 l/m 0,0 km/h (0 Bft) N-NO 22 0 min 6,0 C 9,5 C 0,0 km/h (0 Bft)
16.04.2015 03:30 10,2 C 22,4 C 9,4 C 9,9 C 9,4 C 0,0 C 75 % 78 % 0 % 1013,7 hPa 0,0 l/m 0,0 km/h (0 Bft) O-NO 67 0 min 6,0 C 9,4 C 0,0 km/h (0 Bft)
16.04.2015 03:35 10,3 C 22,4 C 9,3 C 10,0 C 9,3 C 0,0 C 75 % 78 % 0 % 1013,7 hPa 0,0 l/m 0,0 km/h (0 Bft) O-SO 112 0 min 6,1 C 9,3 C 2,1 km/h (1 Bft)
16.04.2015 03:42 10,3 C 22,4 C 9,3 C 10,0 C 9,5 C 0,0 C 75 % 79 % 0 % 1014,0 hPa 0,0 l/m 0,5 km/h (0 Bft) N 0 0 min 6,1 C 9,5 C 2,3 km/h (1 Bft)
16.04.2015 03:50 10,3 C 22,3 C 9,2 C 10,1 C 9,7 C 0,0 C 75 % 79 % 0 % 1014,0 hPa 0,0 l/m 0,8 km/h (0 Bft) O-SO 112 0 min 6,1 C 9,7 C 1,8 km/h (1 Bft)
16.04.2015 03:55 10,4 C 22,3 C 9,2 C 10,3 C 10,0 C 0,0 C 75 % 79 % 0 % 1014,0 hPa 0,0 l/m 0,6 km/h (0 Bft) O-NO 67 0 min 6,2 C 10,0 C 0,0 km/h (0 Bft)
16.04.2015 04:00 10,7 C 22,3 C 9,4 C 10,6 C 10,3 C 0,0 C 75 % 79 % 0 % 1013,6 hPa 0,0 l/m 0,5 km/h (0 Bft) O-SO 112 0 min 6,5 C 10,3 C 0,0 km/h (0 Bft)
16.04.2015 04:05 10,8 C 22,3 C 9,5 C 10,8 C 10,7 C 0,0 C 74 % 79 % 0 % 1013,6 hPa 0,0 l/m 0,2 km/h (0 Bft) O-NO 67 0 min 6,4 C 10,7 C 0,0 km/h (0 Bft)
16.04.2015 04:10 10,8 C 22,3 C 9,6 C 10,8 C 10,7 C 0,0 C 73 % 79 % 0 % 1013,6 hPa 0,0 l/m 0,2 km/h (0 Bft) SW 225 0 min 6,2 C 10,7 C 0,0 km/h (0 Bft)
16.04.2015 04:15 10,8 C 22,3 C 9,7 C 10,7 C 10,6 C 0,0 C 73 % 79 % 0 % 1013,6 hPa 0,0 l/m 0,0 km/h (0 Bft) NO 45 0 min 6,2 C 10,6 C 0,0 km/h (0 Bft)
16.04.2015 04:20 10,8 C 22,3 C 9,6 C 10,7 C 10,6 C 0,0 C 73 % 79 % 0 % 1013,8 hPa 0,0 l/m 0,0 km/h (0 Bft) SO 135 0 min 6,2 C 10,6 C 0,0 km/h (0 Bft)
16.04.2015 04:25 10,8 C 22,3 C 9,6 C 10,7 C 10,6 C 0,0 C 73 % 79 % 0 % 1013,8 hPa 0,0 l/m 0,0 km/h (0 Bft) N-NO 22 0 min 6,2 C 10,6 C 0,0 km/h (0 Bft)
16.04.2015 04:30 10,8 C 22,2 C 9,6 C 10,7 C 10,6 C 0,0 C 73 % 79 % 0 % 1013,8 hPa 0,0 l/m 0,0 km/h (0 Bft) W-SW 247 0 min 6,2 C 10,6 C 1,6 km/h (1 Bft)
16.04.2015 04:35 10,7 C 22,2 C 9,4 C 10,5 C 10,2 C 0,0 C 74 % 79 % 0 % 1013,8 hPa 0,0 l/m 0,0 km/h (0 Bft) W 270 0 min 6,3 C 10,2 C 1,6 km/h (1 Bft)
16.04.2015 04:40 10,5 C 22,2 C 9,3 C 10,3 C 9,9 C 0,0 C 73 % 79 % 0 % 1013,8 hPa 0,0 l/m 0,5 km/h (0 Bft) SW 225 0 min 5,9 C 9,9 C 0,0 km/h (0 Bft)
16.04.2015 04:45 10,3 C 22,2 C 9,2 C 10,1 C 9,7 C 0,0 C 74 % 79 % 0 % 1013,8 hPa 0,0 l/m 0,5 km/h (0 Bft) NO 45 0 min 5,9 C 9,7 C 2,4 km/h (1 Bft)
16.04.2015 04:50 10,3 C 22,2 C 9,2 C 10,1 C 9,6 C 0,0 C 74 % 79 % 0 % 1013,8 hPa 0,0 l/m 0,0 km/h (0 Bft) N-NW 337 0 min 5,9 C 9,6 C 0,0 km/h (0 Bft)
16.04.2015 04:55 10,3 C 22,2 C 9,2 C 10,0 C 9,5 C 0,0 C 74 % 79 % 0 % 1013,8 hPa 0,0 l/m 0,0 km/h (0 Bft) S 180 0 min 5,9 C 9,5 C 0,0 km/h (0 Bft)
16.04.2015 05:00 10,2 C 22,2 C 9,3 C 10,0 C 9,5 C 0,0 C 75 % 80 % 0 % 1013,7 hPa 0,0 l/m 0,0 km/h (0 Bft) SW 225 0 min 6,0 C 9,5 C 0,0 km/h (0 Bft)
16.04.2015 05:05 10,0 C 22,1 C 9,2 C 9,8 C 9,3 C 0,0 C 75 % 80 % 0 % 1013,7 hPa 0,0 l/m 0,2 km/h (0 Bft) W 270 0 min 5,8 C 9,3 C 0,0 km/h (0 Bft)
16.04.2015 05:10 10,0 C 22,1 C 9,1 C 9,7 C 9,2 C 0,0 C 75 % 80 % 0 % 1013,7 hPa 0,0 l/m 0,2 km/h (0 Bft) S 180 0 min 5,8 C 9,2 C 0,0 km/h (0 Bft)
16.04.2015 05:15 9,9 C 22,2 C 8,8 C 9,6 C 9,0 C 0,0 C 75 % 80 % 0 % 1013,7 hPa 0,0 l/m 0,0 km/h (0 Bft) O-NO 67 0 min 5,7 C 9,0 C 0,0 km/h (0 Bft)
16.04.2015 05:20 9,9 C 22,1 C 8,7 C 9,5 C 8,7 C 0,0 C 75 % 80 % 0 % 1013,7 hPa 0,0 l/m 0,0 km/h (0 Bft) W-SW 247 0 min 5,7 C 8,7 C 0,0 km/h (0 Bft)
16.04.2015 05:25 9,6 C 22,1 C 8,6 C 9,2 C 8,3 C 0,0 C 76 % 81 % 0 % 1013,7 hPa 0,0 l/m 0,0 km/h (0 Bft) W 270 0 min 5,6 C 8,3 C 0,0 km/h (0 Bft)
16.04.2015 05:30 9,5 C 22,2 C 8,4 C 9,1 C 8,2 C 0,0 C 76 % 81 % 0 % 1013,7 hPa 0,0 l/m 0,0 km/h (0 Bft) O-NO 67 0 min 5,5 C 8,2 C 0,0 km/h (0 Bft)
16.04.2015 05:35 9,3 C 22,1 C 8,3 C 8,9 C 8,0 C 0,0 C 76 % 80 % 0 % 1013,7 hPa 0,0 l/m 0,0 km/h (0 Bft) W 270 0 min 5,3 C 8,0 C 0,0 km/h (0 Bft)
16.04.2015 05:40 9,2 C 22,1 C 8,3 C 8,7 C 7,7 C 0,0 C 76 % 81 % 0 % 1013,6 hPa 0,0 l/m 0,0 km/h (0 Bft) W 270 0 min 5,2 C 7,7 C 0,0 km/h (0 Bft)
16.04.2015 05:45 9,0 C 22,3 C 8,1 C 8,5 C 7,5 C 0,0 C 77 % 82 % 0 % 1013,6 hPa 0,0 l/m 0,0 km/h (0 Bft) W 270 0 min 5,2 C 7,5 C 0,0 km/h (0 Bft)
16.04.2015 05:50 8,9 C 22,3 C 8,1 C 8,4 C 7,4 C 0,0 C 77 % 81 % 0 % 1013,6 hPa 0,0 l/m 0,0 km/h (0 Bft) W 270 0 min 5,1 C 7,4 C 0,0 km/h (0 Bft)
16.04.2015 05:55 8,7 C 22,3 C 7,9 C 8,2 C 7,3 C 0,0 C 77 % 82 % 0 % 1013,6 hPa 0,0 l/m 0,0 km/h (0 Bft) W 270 0 min 4,9 C 7,3 C 0,0 km/h (0 Bft)
16.04.2015 06:00 8,4 C 22,3 C 7,8 C 8,0 C 7,3 C 0,0 C 78 % 82 % 0 % 1014,2 hPa 0,0 l/m 0,0 km/h (0 Bft) W 270 0 min 4,8 C 7,3 C 0,0 km/h (0 Bft)
16.04.2015 06:05 8,3 C 22,3 C 7,8 C 8,0 C 7,5 C 0,0 C 79 % 82 % 0 % 1014,2 hPa 0,0 l/m 0,0 km/h (0 Bft) W 270 0 min 4,9 C 7,5 C 0,0 km/h (0 Bft)
16.04.2015 06:10 8,3 C 22,2 C 7,8 C 8,1 C 7,6 C 0,0 C 79 % 83 % 0 % 1014,2 hPa 0,0 l/m 0,0 km/h (0 Bft) W-SW 247 0 min 4,9 C 7,6 C 0,0 km/h (0 Bft)
16.04.2015 06:15 8,1 C 22,2 C 7,8 C 8,0 C 7,7 C 0,0 C 79 % 83 % 0 % 1014,2 hPa 0,0 l/m 0,0 km/h (0 Bft) W 270 0 min 4,7 C 7,7 C 0,0 km/h (0 Bft)
16.04.2015 06:20 8,0 C 22,2 C 7,8 C 7,9 C 7,7 C 0,0 C 79 % 83 % 0 % 1014,3 hPa 0,0 l/m 0,0 km/h (0 Bft) W 270 0 min 4,6 C 7,7 C 0,0 km/h (0 Bft)
16.04.2015 06:25 8,0 C 22,2 C 7,9 C 7,9 C 7,7 C 0,0 C 80 % 83 % 0 % 1014,3 hPa 0,0 l/m 0,0 km/h (0 Bft) W-SW 247 0 min 4,8 C 7,7 C 0,0 km/h (0 Bft)
16.04.2015 06:30 7,9 C 22,2 C 7,9 C 7,8 C 7,7 C 0,0 C 80 % 83 % 0 % 1014,3 hPa 0,0 l/m 0,0 km/h (0 Bft) N-NW 337 0 min 4,7 C 7,7 C 0,0 km/h (0 Bft)
16.04.2015 06:35 7,9 C 22,2 C 7,7 C 7,8 C 7,6 C 0,0 C 80 % 83 % 0 % 1014,3 hPa 0,0 l/m 0,0 km/h (0 Bft) W-SW 247 0 min 4,7 C 7,6 C 0,0 km/h (0 Bft)
16.04.2015 06:42 7,7 C 22,2 C 7,7 C 7,6 C 7,5 C 0,0 C 80 % 83 % 0 % 1014,6 hPa 0,0 l/m 0,0 km/h (0 Bft) N 0 0 min 4,5 C 7,5 C 0,0 km/h (0 Bft)
16.04.2015 06:50 7,6 C 22,2 C 7,8 C 7,5 C 7,4 C 0,0 C 80 % 83 % 0 % 1014,6 hPa 0,0 l/m 0,0 km/h (0 Bft) W-SW 247 0 min 4,4 C 7,4 C 0,0 km/h (0 Bft)
16.04.2015 06:55 7,6 C 22,1 C 7,9 C 7,6 C 7,5 C 0,0 C 80 % 83 % 0 % 1014,6 hPa 0,0 l/m 0,0 km/h (0 Bft) O 90 0 min 4,4 C 7,5 C 0,0 km/h (0 Bft)
16.04.2015 07:00 7,6 C 22,1 C 7,9 C 7,7 C 7,7 C 0,1 C 80 % 83 % 3 % 1014,5 hPa 0,0 l/m 0,0 km/h (0 Bft) O-NO 67 0 min 4,4 C 7,7 C 0,0 km/h (0 Bft)
16.04.2015 07:05 7,6 C 22,1 C 7,9 C 8,0 C 8,0 C 0,4 C 81 % 84 % 11 % 1014,5 hPa 0,0 l/m 0,0 km/h (0 Bft) O-NO 67 0 min 4,6 C 8,0 C 0,0 km/h (0 Bft)
16.04.2015 07:10 7,6 C 22,0 C 8,1 C 8,1 C 8,1 C 0,5 C 80 % 83 % 13 % 1014,5 hPa 0,0 l/m 0,0 km/h (0 Bft) O-NO 67 0 min 4,4 C 8,1 C 0,0 km/h (0 Bft)
16.04.2015 07:15 7,6 C 22,0 C 8,3 C 8,6 C 8,6 C 1,0 C 81 % 84 % 26 % 1014,5 hPa 0,0 l/m 0,0 km/h (0 Bft) O-NO 67 0 min 4,6 C 8,6 C 0,0 km/h (0 Bft)
16.04.2015 07:20 7,6 C 22,1 C 8,3 C 9,2 C 9,2 C 1,6 C 81 % 84 % 42 % 1014,9 hPa 0,0 l/m 0,0 km/h (0 Bft) O-NO 67 0 min 4,6 C 9,2 C 0,0 km/h (0 Bft)
16.04.2015 07:25 7,7 C 22,0 C 8,5 C 9,8 C 9,8 C 2,1 C 81 % 84 % 55 % 1014,9 hPa 0,0 l/m 0,0 km/h (0 Bft) S 180 5 min 4,7 C 9,8 C 0,0 km/h (0 Bft)
16.04.2015 07:30 7,7 C 21,8 C 8,8 C 10,4 C 10,4 C 2,7 C 81 % 84 % 71 % 1014,9 hPa 0,0 l/m 0,0 km/h (0 Bft) SW 225 5 min 4,7 C 10,4 C 0,0 km/h (0 Bft)
16.04.2015 07:35 7,9 C 21,9 C 9,1 C 11,3 C 11,3 C 3,4 C 81 % 83 % 89 % 1014,9 hPa 0,0 l/m 0,0 km/h (0 Bft) SW 225 5 min 4,8 C 11,3 C 0,0 km/h (0 Bft)
16.04.2015 07:40 8,0 C 21,9 C 9,1 C 11,9 C 11,9 C 3,9 C 80 % 83 % 100 % 1015,1 hPa 0,0 l/m 0,0 km/h (0 Bft) NW 315 5 min 4,8 C 11,9 C 0,0 km/h (0 Bft)
16.04.2015 07:45 8,0 C 21,8 C 9,3 C 12,8 C 12,8 C 4,8 C 80 % 83 % 100 % 1015,1 hPa 0,0 l/m 0,0 km/h (0 Bft) SW 225 5 min 4,8 C 12,8 C 0,0 km/h (0 Bft)
16.04.2015 07:47 8,4 C 21,7 C 10,3 C 14,7 C 14,7 C 6,3 C 81 % 82 % 100 % 1015,1 hPa 0,0 l/m 0,0 km/h (0 Bft) W 270 2 min 5,3 C 14,7 C 0,0 km/h (0 Bft)
16.04.2015 07:51 8,4 C 21,7 C 10,3 C 14,7 C 14,7 C 6,3 C 81 % 82 % 100 % 1015,1 hPa 0,0 l/m 0,0 km/h (0 Bft) W 270 4 min 5,3 C 14,7 C 0,0 km/h (0 Bft)
16.04.2015 07:55 8,4 C 21,7 C 10,3 C 14,7 C 14,7 C 6,3 C 81 % 82 % 100 % 1015,1 hPa 0,0 l/m 0,0 km/h (0 Bft) W 270 4 min 5,3 C 14,7 C 0,0 km/h (0 Bft)
16.04.2015 08:00 8,7 C 21,7 C 10,4 C 15,1 C 15,1 C 6,4 C 80 % 81 % 100 % 1014,9 hPa 0,0 l/m 0,6 km/h (0 Bft) W-SW 247 5 min 5,4 C 15,1 C 2,1 km/h (1 Bft)
16.04.2015 08:05 9,1 C 21,6 C 10,5 C 14,7 C 14,7 C 5,6 C 79 % 79 % 100 % 1014,9 hPa 0,0 l/m 1,8 km/h (1 Bft) W-NW 292 5 min 5,7 C 14,7 C 4,3 km/h (1 Bft)
16.04.2015 08:10 9,3 C 21,6 C 10,6 C 14,5 C 14,5 C 5,2 C 79 % 79 % 100 % 1014,9 hPa 0,0 l/m 1,6 km/h (1 Bft) NW 315 5 min 5,8 C 14,5 C 1,9 km/h (1 Bft)
16.04.2015 08:15 9,7 C 21,6 C 10,9 C 15,6 C 15,6 C 5,9 C 78 % 78 % 100 % 1014,9 hPa 0,0 l/m 0,8 km/h (0 Bft) W 270 5 min 6,1 C 15,6 C 0,0 km/h (0 Bft)
16.04.2015 08:20 9,9 C 21,5 C 11,3 C 16,6 C 16,6 C 6,7 C 78 % 78 % 100 % 1015,3 hPa 0,0 l/m 1,0 km/h (0 Bft) SW 225 5 min 6,2 C 16,6 C 2,4 km/h (1 Bft)
16.04.2015 08:25 10,3 C 21,5 C 11,3 C 16,9 C 16,9 C 6,6 C 77 % 76 % 100 % 1015,3 hPa 0,0 l/m 1,3 km/h (1 Bft) S-SO 157 5 min 6,4 C 16,9 C 2,1 km/h (1 Bft)
16.04.2015 08:30 10,4 C 21,5 C 11,5 C 17,0 C 17,0 C 6,6 C 76 % 75 % 100 % 1015,3 hPa 0,0 l/m 1,6 km/h (1 Bft) W-SW 247 5 min 6,4 C 17,0 C 2,9 km/h (1 Bft)
16.04.2015 08:35 10,6 C 21,5 C 11,7 C 17,3 C 17,3 C 6,7 C 75 % 75 % 100 % 1015,3 hPa 0,0 l/m 1,6 km/h (1 Bft) W 270 5 min 6,4 C 17,3 C 4,8 km/h (1 Bft)
16.04.2015 08:40 10,9 C 21,5 C 11,7 C 17,1 C 17,1 C 6,2 C 74 % 74 % 100 % 1015,4 hPa 0,0 l/m 2,3 km/h (1 Bft) W-SW 247 5 min 6,5 C 17,1 C 2,9 km/h (1 Bft)
16.04.2015 08:45 10,8 C 21,5 C 11,7 C 16,5 C 16,5 C 5,7 C 74 % 74 % 100 % 1015,4 hPa 0,0 l/m 2,7 km/h (1 Bft) S-SW 202 5 min 6,4 C 16,5 C 6,8 km/h (2 Bft)
16.04.2015 08:50 10,9 C 21,5 C 11,7 C 17,1 C 17,1 C 6,2 C 73 % 74 % 100 % 1015,4 hPa 0,0 l/m 2,7 km/h (1 Bft) W-SW 247 5 min 6,3 C 17,1 C 4,5 km/h (1 Bft)
16.04.2015 08:55 11,0 C 21,5 C 11,5 C 17,3 C 17,3 C 6,3 C 73 % 74 % 100 % 1015,4 hPa 0,0 l/m 3,1 km/h (1 Bft) SW 225 5 min 6,4 C 17,3 C 5,8 km/h (2 Bft)
16.04.2015 09:00 11,1 C 21,4 C 11,4 C 17,2 C 17,2 C 6,1 C 72 % 73 % 100 % 1015,4 hPa 0,0 l/m 3,4 km/h (1 Bft) W-SW 247 5 min 6,2 C 17,2 C 5,0 km/h (1 Bft)
16.04.2015 09:05 11,2 C 21,4 C 11,4 C 17,6 C 17,6 C 6,4 C 72 % 73 % 100 % 1015,4 hPa 0,0 l/m 3,1 km/h (1 Bft) SW 225 5 min 6,3 C 17,6 C 3,4 km/h (1 Bft)
16.04.2015 09:10 11,3 C 21,5 C 11,5 C 17,7 C 17,7 C 6,4 C 72 % 74 % 100 % 1015,4 hPa 0,0 l/m 2,4 km/h (1 Bft) O-SO 112 5 min 6,4 C 17,7 C 2,9 km/h (1 Bft)
16.04.2015 09:15 11,4 C 21,5 C 11,6 C 17,6 C 17,6 C 6,2 C 72 % 74 % 100 % 1015,4 hPa 0,0 l/m 1,9 km/h (1 Bft) W 270 5 min 6,5 C 17,6 C 4,5 km/h (1 Bft)
16.04.2015 09:20 11,5 C 21,5 C 11,7 C 17,6 C 17,6 C 6,1 C 71 % 73 % 100 % 1015,4 hPa 0,0 l/m 2,4 km/h (1 Bft) SW 225 5 min 6,4 C 17,6 C 4,2 km/h (1 Bft)
16.04.2015 09:25 11,6 C 21,5 C 11,9 C 17,3 C 17,3 C 5,7 C 71 % 73 % 100 % 1015,4 hPa 0,0 l/m 3,5 km/h (1 Bft) SW 225 5 min 6,5 C 17,3 C 9,2 km/h (2 Bft)
16.04.2015 09:30 11,5 C 21,5 C 11,9 C 16,5 C 16,5 C 5,0 C 71 % 73 % 100 % 1015,4 hPa 0,0 l/m 3,1 km/h (1 Bft) W-SW 247 5 min 6,4 C 16,5 C 2,4 km/h (1 Bft)
16.04.2015 09:35 11,7 C 21,5 C 12,3 C 16,5 C 16,5 C 4,8 C 71 % 73 % 100 % 1015,4 hPa 0,0 l/m 2,9 km/h (1 Bft) S-SW 202 5 min 6,6 C 16,5 C 6,9 km/h (2 Bft)
16.04.2015 09:41 12,2 C 21,5 C 13,3 C 16,7 C 16,7 C 4,5 C 71 % 71 % 100 % 1015,5 hPa 0,0 l/m 2,7 km/h (1 Bft) N 0 6 min 7,1 C 16,7 C 3,5 km/h (1 Bft)
16.04.2015 09:50 12,2 C 21,5 C 13,7 C 17,1 C 17,1 C 4,9 C 71 % 71 % 100 % 1015,5 hPa 0,0 l/m 2,4 km/h (1 Bft) SW 225 9 min 7,1 C 17,1 C 3,9 km/h (1 Bft)
16.04.2015 09:55 12,3 C 21,4 C 13,9 C 17,4 C 17,4 C 5,1 C 69 % 68 % 100 % 1015,5 hPa 0,0 l/m 4,5 km/h (1 Bft) W 270 5 min 6,8 C 17,4 C 10,8 km/h (2 Bft)
16.04.2015 10:00 12,1 C 21,5 C 14,0 C 16,9 C 16,9 C 4,8 C 70 % 68 % 100 % 1016,0 hPa 0,0 l/m 4,3 km/h (1 Bft) NW 315 5 min 6,8 C 16,9 C 0,0 km/h (0 Bft)
16.04.2015 10:05 12,2 C 21,5 C 14,0 C 16,7 C 16,7 C 4,5 C 70 % 68 % 100 % 1016,0 hPa 0,0 l/m 2,3 km/h (1 Bft) W 270 5 min 6,9 C 16,7 C 0,0 km/h (0 Bft)
16.04.2015 10:10 12,3 C 21,5 C 14,2 C 16,8 C 16,8 C 4,5 C 69 % 67 % 100 % 1016,0 hPa 0,0 l/m 1,8 km/h (1 Bft) N-NW 337 5 min 6,8 C 16,8 C 1,8 km/h (1 Bft)
16.04.2015 10:15 12,4 C 21,5 C 14,4 C 17,1 C 17,1 C 4,7 C 69 % 67 % 100 % 1016,0 hPa 0,0 l/m 2,1 km/h (1 Bft) S-SW 202 5 min 6,9 C 17,1 C 6,0 km/h (2 Bft)
16.04.2015 10:20 12,3 C 21,5 C 14,4 C 16,8 C 16,8 C 4,5 C 69 % 67 % 100 % 1015,8 hPa 0,0 l/m 3,2 km/h (1 Bft) W-SW 247 5 min 6,8 C 16,8 C 8,9 km/h (2 Bft)
16.04.2015 10:25 12,3 C 21,5 C 14,5 C 16,4 C 16,4 C 4,1 C 69 % 66 % 100 % 1015,8 hPa 0,0 l/m 3,9 km/h (1 Bft) W-SW 247 5 min 6,8 C 16,4 C 2,3 km/h (1 Bft)
16.04.2015 10:30 12,5 C 21,5 C 14,5 C 16,3 C 16,3 C 3,8 C 70 % 67 % 100 % 1015,8 hPa 0,0 l/m 2,7 km/h (1 Bft) W-SW 247 5 min 7,2 C 16,3 C 4,3 km/h (1 Bft)
16.04.2015 10:35 12,4 C 21,5 C 14,5 C 16,1 C 16,1 C 3,7 C 69 % 66 % 97 % 1015,8 hPa 0,0 l/m 2,1 km/h (1 Bft) W-SW 247 5 min 6,9 C 16,1 C 7,1 km/h (2 Bft)
16.04.2015 10:40 12,3 C 21,5 C 14,4 C 15,8 C 15,8 C 3,5 C 69 % 66 % 92 % 1016,2 hPa 0,0 l/m 3,2 km/h (1 Bft) W-NW 292 5 min 6,8 C 15,8 C 3,7 km/h (1 Bft)
16.04.2015 10:45 12,3 C 21,5 C 14,7 C 15,8 C 15,8 C 3,5 C 70 % 66 % 92 % 1016,2 hPa 0,0 l/m 3,4 km/h (1 Bft) W 270 5 min 7,0 C 15,8 C 3,2 km/h (1 Bft)
16.04.2015 10:50 12,4 C 21,5 C 14,9 C 16,0 C 16,0 C 3,6 C 69 % 66 % 95 % 1016,2 hPa 0,0 l/m 2,7 km/h (1 Bft) S-SO 157 5 min 6,9 C 16,0 C 0,0 km/h (0 Bft)
16.04.2015 10:55 12,6 C 21,5 C 15,7 C 16,9 C 16,9 C 4,3 C 70 % 66 % 100 % 1016,2 hPa 0,0 l/m 2,7 km/h (1 Bft) N-NO 22 5 min 7,3 C 16,9 C 2,9 km/h (1 Bft)
16.04.2015 11:00 12,7 C 21,5 C 16,3 C 17,5 C 17,5 C 4,8 C 69 % 64 % 100 % 1016,4 hPa 0,0 l/m 2,6 km/h (1 Bft) W-SW 247 5 min 7,2 C 17,5 C 4,3 km/h (1 Bft)
16.04.2015 11:05 12,7 C 21,5 C 15,7 C 16,9 C 16,9 C 4,2 C 69 % 62 % 100 % 1016,4 hPa 0,0 l/m 3,7 km/h (1 Bft) O-SO 112 5 min 7,2 C 16,9 C 12,1 km/h (2 Bft)
16.04.2015 11:10 12,4 C 21,5 C 15,4 C 16,6 C 16,6 C 4,2 C 68 % 62 % 100 % 1016,4 hPa 0,0 l/m 4,2 km/h (1 Bft) SW 225 5 min 6,7 C 16,6 C 6,1 km/h (2 Bft)
16.04.2015 11:15 12,3 C 21,5 C 15,2 C 16,0 C 16,0 C 3,7 C 69 % 63 % 97 % 1016,4 hPa 0,0 l/m 4,3 km/h (1 Bft) SW 225 5 min 6,8 C 16,0 C 5,3 km/h (1 Bft)
16.04.2015 11:20 12,3 C 21,5 C 15,4 C 15,9 C 15,9 C 3,6 C 69 % 63 % 95 % 1016,4 hPa 0,0 l/m 4,8 km/h (1 Bft) W-SW 247 5 min 6,8 C 15,9 C 4,8 km/h (1 Bft)
16.04.2015 11:25 12,1 C 21,5 C 15,6 C 16,2 C 16,2 C 4,1 C 69 % 63 % 100 % 1016,4 hPa 0,0 l/m 4,5 km/h (1 Bft) W-SW 247 5 min 6,6 C 16,2 C 3,5 km/h (1 Bft)
16.04.2015 11:30 12,3 C 21,5 C 15,6 C 16,5 C 16,5 C 4,2 C 69 % 63 % 100 % 1016,4 hPa 0,0 l/m 3,9 km/h (1 Bft) W-SW 247 5 min 6,8 C 16,5 C 6,1 km/h (2 Bft)
16.04.2015 11:35 12,3 C 21,5 C 15,9 C 16,8 C 16,8 C 4,5 C 69 % 62 % 100 % 1016,4 hPa 0,0 l/m 4,3 km/h (1 Bft) W 270 5 min 6,8 C 16,8 C 6,6 km/h (2 Bft)
16.04.2015 11:40 12,3 C 21,5 C 15,9 C 16,7 C 16,7 C 4,4 C 69 % 62 % 100 % 1016,0 hPa 0,0 l/m 5,0 km/h (1 Bft) W-SW 247 5 min 6,8 C 16,7 C 4,5 km/h (1 Bft)
16.04.2015 11:45 12,5 C 21,5 C 16,0 C 17,1 C 17,1 C 4,6 C 70 % 62 % 100 % 1016,0 hPa 0,0 l/m 3,9 km/h (1 Bft) SW 225 5 min 7,2 C 17,1 C 5,1 km/h (1 Bft)
16.04.2015 11:50 12,7 C 21,5 C 16,1 C 17,2 C 17,2 C 4,5 C 69 % 62 % 100 % 1016,0 hPa 0,0 l/m 3,1 km/h (1 Bft) N-NW 337 5 min 7,2 C 17,2 C 3,9 km/h (1 Bft)
16.04.2015 11:55 12,7 C 21,5 C 16,1 C 17,2 C 17,2 C 4,5 C 69 % 62 % 100 % 1016,0 hPa 0,0 l/m 4,0 km/h (1 Bft) W-SW 247 5 min 7,2 C 17,2 C 10,6 km/h (2 Bft)
16.04.2015 12:00 12,4 C 21,5 C 15,9 C 16,7 C 16,7 C 4,3 C 69 % 61 % 100 % 1016,3 hPa 0,0 l/m 4,7 km/h (1 Bft) W 270 5 min 6,9 C 16,7 C 7,6 km/h (2 Bft)
16.04.2015 12:05 12,5 C 21,6 C 16,0 C 16,7 C 16,7 C 4,2 C 70 % 63 % 100 % 1016,3 hPa 0,0 l/m 4,5 km/h (1 Bft) O 90 5 min 7,2 C 16,7 C 2,9 km/h (1 Bft)
16.04.2015 12:10 12,5 C 21,6 C 16,9 C 17,1 C 17,1 C 4,6 C 69 % 62 % 100 % 1016,3 hPa 0,0 l/m 4,3 km/h (1 Bft) W 270 5 min 7,0 C 17,1 C 6,9 km/h (2 Bft)
16.04.2015 12:15 12,5 C 21,6 C 17,6 C 17,5 C 17,5 C 5,0 C 70 % 60 % 100 % 1016,3 hPa 0,0 l/m 3,5 km/h (1 Bft) W-SW 247 5 min 7,2 C 17,5 C 2,9 km/h (1 Bft)
16.04.2015 12:20 12,9 C 21,6 C 18,2 C 18,6 C 18,6 C 5,7 C 71 % 59 % 100 % 1015,8 hPa 0,0 l/m 2,9 km/h (1 Bft) S-SW 202 5 min 7,8 C 18,6 C 3,5 km/h (1 Bft)
16.04.2015 12:25 12,9 C 21,6 C 18,0 C 18,8 C 18,8 C 5,9 C 69 % 56 % 100 % 1015,8 hPa 0,0 l/m 5,1 km/h (1 Bft) W-SW 247 5 min 7,4 C 18,8 C 6,9 km/h (2 Bft)
16.04.2015 12:30 12,8 C 21,6 C 17,7 C 18,1 C 18,1 C 5,3 C 69 % 58 % 100 % 1015,8 hPa 0,0 l/m 6,0 km/h (2 Bft) W-SW 247 5 min 7,3 C 18,1 C 4,5 km/h (1 Bft)
16.04.2015 12:35 13,1 C 21,6 C 17,3 C 18,0 C 18,0 C 4,9 C 69 % 58 % 100 % 1015,8 hPa 0,0 l/m 4,2 km/h (1 Bft) SW 225 5 min 7,5 C 18,0 C 5,5 km/h (1 Bft)
16.04.2015 12:42 12,9 C 21,6 C 16,3 C 17,2 C 17,2 C 4,3 C 69 % 60 % 100 % 1015,8 hPa 0,0 l/m 3,2 km/h (1 Bft) N 0 7 min 7,4 C 17,2 C 4,0 km/h (1 Bft)
16.04.2015 12:50 13,1 C 21,6 C 17,1 C 17,4 C 17,4 C 4,3 C 69 % 61 % 100 % 1015,8 hPa 0,0 l/m 4,3 km/h (1 Bft) W-SW 247 8 min 7,5 C 17,4 C 8,2 km/h (2 Bft)
16.04.2015 12:55 13,3 C 21,6 C 18,1 C 18,8 C 18,8 C 5,5 C 70 % 60 % 100 % 1015,8 hPa 0,0 l/m 5,1 km/h (1 Bft) SW 225 5 min 7,9 C 18,8 C 6,8 km/h (2 Bft)
16.04.2015 13:00 13,5 C 21,6 C 18,5 C 19,3 C 19,3 C 5,8 C 69 % 59 % 100 % 1016,3 hPa 0,0 l/m 4,5 km/h (1 Bft) SW 225 5 min 7,9 C 19,3 C 2,9 km/h (1 Bft)
16.04.2015 13:05 13,9 C 21,6 C 18,5 C 19,7 C 19,7 C 5,8 C 68 % 57 % 100 % 1016,3 hPa 0,0 l/m 3,9 km/h (1 Bft) N-NO 22 5 min 8,1 C 19,7 C 3,9 km/h (1 Bft)
16.04.2015 13:10 13,9 C 21,6 C 18,8 C 20,1 C 20,1 C 6,2 C 68 % 58 % 100 % 1016,3 hPa 0,0 l/m 3,2 km/h (1 Bft) W 270 5 min 8,1 C 20,1 C 3,1 km/h (1 Bft)
16.04.2015 13:15 14,0 C 21,6 C 19,6 C 20,7 C 20,7 C 6,7 C 67 % 54 % 100 % 1016,3 hPa 0,0 l/m 3,7 km/h (1 Bft) NW 315 5 min 8,0 C 20,7 C 5,5 km/h (1 Bft)
16.04.2015 13:20 14,1 C 21,6 C 19,3 C 20,8 C 20,8 C 6,7 C 67 % 54 % 100 % 1015,7 hPa 0,0 l/m 3,9 km/h (1 Bft) W-SW 247 5 min 8,1 C 20,8 C 4,7 km/h (1 Bft)
16.04.2015 13:25 14,1 C 21,6 C 19,6 C 21,0 C 21,0 C 6,9 C 67 % 55 % 100 % 1015,7 hPa 0,0 l/m 4,7 km/h (1 Bft) W-SW 247 5 min 8,1 C 21,0 C 14,3 km/h (3 Bft)
16.04.2015 13:30 14,1 C 21,7 C 19,9 C 20,9 C 20,9 C 6,8 C 66 % 54 % 100 % 1015,7 hPa 0,0 l/m 6,4 km/h (2 Bft) SW 225 5 min 7,8 C 20,9 C 6,1 km/h (2 Bft)
16.04.2015 13:35 14,1 C 21,7 C 20,3 C 20,6 C 20,6 C 6,5 C 67 % 53 % 100 % 1015,7 hPa 0,0 l/m 6,9 km/h (2 Bft) SW 225 5 min 8,1 C 20,6 C 4,5 km/h (1 Bft)
16.04.2015 13:40 14,4 C 21,7 C 19,7 C 20,3 C 20,3 C 5,9 C 66 % 53 % 100 % 1015,5 hPa 0,0 l/m 5,1 km/h (1 Bft) NW 315 5 min 8,1 C 20,3 C 4,8 km/h (1 Bft)
16.04.2015 13:45 14,3 C 21,7 C 18,8 C 19,5 C 19,5 C 5,2 C 66 % 54 % 100 % 1015,5 hPa 0,0 l/m 3,9 km/h (1 Bft) W 270 5 min 8,0 C 19,5 C 7,6 km/h (2 Bft)
16.04.2015 13:50 14,1 C 21,7 C 18,3 C 18,8 C 18,8 C 4,7 C 65 % 55 % 100 % 1015,5 hPa 0,0 l/m 4,8 km/h (1 Bft) W-SW 247 5 min 7,6 C 18,8 C 10,0 km/h (2 Bft)
16.04.2015 13:55 14,0 C 21,7 C 18,8 C 18,5 C 18,5 C 4,5 C 67 % 57 % 100 % 1015,5 hPa 0,0 l/m 5,1 km/h (1 Bft) N-NO 22 5 min 8,0 C 18,5 C 5,6 km/h (1 Bft)
16.04.2015 14:00 14,3 C 21,7 C 19,0 C 18,9 C 18,9 C 4,6 C 66 % 55 % 100 % 1015,8 hPa 0,0 l/m 5,1 km/h (1 Bft) SW 225 5 min 8,0 C 18,9 C 6,0 km/h (2 Bft)
16.04.2015 14:05 14,1 C 21,7 C 19,1 C 19,0 C 19,0 C 4,9 C 67 % 56 % 100 % 1015,8 hPa 0,0 l/m 5,1 km/h (1 Bft) SW 225 5 min 8,1 C 19,0 C 4,7 km/h (1 Bft)
16.04.2015 14:10 14,3 C 21,7 C 18,8 C 19,2 C 19,2 C 4,9 C 66 % 55 % 100 % 1015,8 hPa 0,0 l/m 5,3 km/h (1 Bft) S 180 5 min 8,0 C 19,2 C 6,0 km/h (2 Bft)
16.04.2015 14:15 14,0 C 21,8 C 18,4 C 18,5 C 18,5 C 4,5 C 66 % 55 % 100 % 1015,8 hPa 0,0 l/m 6,3 km/h (2 Bft) SW 225 5 min 7,7 C 18,5 C 10,3 km/h (2 Bft)
16.04.2015 14:20 14,1 C 21,8 C 18,3 C 18,2 C 18,2 C 4,1 C 66 % 57 % 100 % 1015,6 hPa 0,0 l/m 6,6 km/h (2 Bft) W 270 5 min 7,8 C 18,2 C 8,5 km/h (2 Bft)
16.04.2015 14:25 14,3 C 21,8 C 19,2 C 19,3 C 19,3 C 5,0 C 66 % 56 % 100 % 1015,6 hPa 0,0 l/m 6,6 km/h (2 Bft) W 270 5 min 8,0 C 19,3 C 6,3 km/h (2 Bft)
16.04.2015 14:30 14,4 C 21,8 C 19,2 C 19,5 C 19,5 C 5,1 C 66 % 56 % 100 % 1015,6 hPa 0,0 l/m 6,1 km/h (2 Bft) SW 225 5 min 8,1 C 19,5 C 7,4 km/h (2 Bft)
16.04.2015 14:35 14,8 C 21,9 C 20,4 C 21,0 C 21,0 C 6,2 C 65 % 54 % 100 % 1015,6 hPa 0,0 l/m 5,6 km/h (1 Bft) W-SW 247 5 min 8,3 C 21,0 C 4,2 km/h (1 Bft)
16.04.2015 14:40 14,9 C 21,9 C 20,6 C 21,9 C 21,9 C 7,0 C 65 % 52 % 100 % 1014,9 hPa 0,0 l/m 4,8 km/h (1 Bft) O-NO 67 5 min 8,4 C 21,9 C 6,4 km/h (2 Bft)
16.04.2015 14:45 14,5 C 21,9 C 19,3 C 21,5 C 21,5 C 7,0 C 66 % 53 % 100 % 1014,9 hPa 0,0 l/m 4,0 km/h (1 Bft) O 90 5 min 8,2 C 21,5 C 6,0 km/h (2 Bft)
16.04.2015 14:50 14,4 C 21,9 C 18,7 C 21,4 C 21,4 C 7,0 C 66 % 54 % 100 % 1014,9 hPa 0,0 l/m 4,5 km/h (1 Bft) O 90 5 min 8,1 C 21,4 C 5,0 km/h (1 Bft)
16.04.2015 14:55 14,2 C 21,9 C 17,9 C 20,4 C 20,4 C 6,2 C 66 % 55 % 100 % 1014,9 hPa 0,0 l/m 4,2 km/h (1 Bft) N-NO 22 5 min 7,9 C 20,4 C 15,0 km/h (3 Bft)
16.04.2015 15:00 14,3 C 21,9 C 17,9 C 20,1 C 20,1 C 5,8 C 66 % 56 % 100 % 1015,3 hPa 0,0 l/m 3,9 km/h (1 Bft) N 360 5 min 8,0 C 20,1 C 2,9 km/h (1 Bft)
16.04.2015 15:05 14,1 C 22,0 C 17,5 C 19,4 C 19,4 C 5,3 C 67 % 57 % 100 % 1015,3 hPa 0,0 l/m 2,9 km/h (1 Bft) N-NW 337 5 min 8,1 C 19,4 C 1,8 km/h (1 Bft)
16.04.2015 15:10 14,3 C 22,0 C 17,7 C 19,6 C 19,6 C 5,3 C 67 % 58 % 100 % 1015,3 hPa 0,0 l/m 3,1 km/h (1 Bft) NW 315 5 min 8,3 C 19,6 C 2,7 km/h (1 Bft)
16.04.2015 15:15 14,3 C 22,0 C 17,9 C 20,6 C 20,6 C 6,3 C 67 % 59 % 100 % 1015,3 hPa 0,0 l/m 3,2 km/h (1 Bft) O-NO 67 5 min 8,3 C 20,6 C 4,7 km/h (1 Bft)
16.04.2015 15:20 14,1 C 22,0 C 17,1 C 20,5 C 20,5 C 6,4 C 67 % 58 % 100 % 1015,3 hPa 0,0 l/m 3,9 km/h (1 Bft) O-NO 67 5 min 8,1 C 20,5 C 6,8 km/h (2 Bft)
16.04.2015 15:25 13,7 C 22,0 C 16,4 C 18,5 C 18,5 C 4,8 C 67 % 59 % 100 % 1015,3 hPa 0,0 l/m 5,3 km/h (1 Bft) NW 315 5 min 7,7 C 18,5 C 10,0 km/h (2 Bft)
16.04.2015 15:30 13,5 C 22,0 C 16,1 C 17,3 C 17,3 C 3,8 C 67 % 60 % 100 % 1015,3 hPa 0,0 l/m 6,0 km/h (2 Bft) N 360 5 min 7,5 C 17,3 C 5,8 km/h (2 Bft)
16.04.2015 15:35 13,5 C 22,0 C 16,1 C 16,9 C 16,9 C 3,4 C 68 % 61 % 89 % 1015,3 hPa 0,0 l/m 5,3 km/h (1 Bft) N-NO 22 5 min 7,7 C 16,9 C 5,8 km/h (2 Bft)
16.04.2015 15:42 13,3 C 22,1 C 15,9 C 17,0 C 17,0 C 3,7 C 68 % 61 % 97 % 1015,0 hPa 0,0 l/m 3,9 km/h (1 Bft) N 0 7 min 7,5 C 17,0 C 4,5 km/h (1 Bft)
16.04.2015 15:50 13,3 C 22,1 C 15,7 C 16,9 C 16,9 C 3,6 C 69 % 62 % 95 % 1015,0 hPa 0,0 l/m 4,0 km/h (1 Bft) O-NO 67 8 min 7,7 C 16,9 C 5,8 km/h (2 Bft)
16.04.2015 15:55 13,3 C 22,1 C 15,6 C 17,1 C 17,1 C 3,8 C 69 % 63 % 100 % 1015,0 hPa 0,0 l/m 4,7 km/h (1 Bft) NO 45 5 min 7,7 C 17,1 C 8,0 km/h (2 Bft)
16.04.2015 16:00 13,1 C 22,1 C 15,3 C 16,8 C 16,8 C 3,7 C 69 % 63 % 97 % 1014,9 hPa 0,0 l/m 5,3 km/h (1 Bft) NW 315 5 min 7,5 C 16,8 C 3,7 km/h (1 Bft)
16.04.2015 16:05 13,1 C 22,1 C 15,5 C 16,6 C 16,6 C 3,5 C 70 % 64 % 92 % 1014,9 hPa 0,0 l/m 5,1 km/h (1 Bft) NO 45 5 min 7,8 C 16,6 C 4,3 km/h (1 Bft)
16.04.2015 16:10 13,3 C 22,2 C 15,6 C 17,0 C 17,0 C 3,7 C 70 % 63 % 97 % 1014,9 hPa 0,0 l/m 4,2 km/h (1 Bft) N-NO 22 5 min 7,9 C 17,0 C 6,0 km/h (2 Bft)
16.04.2015 16:15 13,2 C 22,2 C 15,5 C 17,2 C 17,2 C 4,0 C 69 % 63 % 100 % 1014,9 hPa 0,0 l/m 4,3 km/h (1 Bft) W 270 5 min 7,6 C 17,2 C 4,0 km/h (1 Bft)
16.04.2015 16:20 13,2 C 22,2 C 15,6 C 17,7 C 17,7 C 4,5 C 69 % 63 % 100 % 1015,2 hPa 0,0 l/m 3,7 km/h (1 Bft) W 270 5 min 7,6 C 17,7 C 1,6 km/h (1 Bft)
16.04.2015 16:25 13,6 C 22,2 C 16,2 C 19,1 C 19,1 C 5,5 C 68 % 62 % 100 % 1015,2 hPa 0,0 l/m 3,2 km/h (1 Bft) N 360 5 min 7,8 C 19,1 C 4,8 km/h (1 Bft)
16.04.2015 16:30 13,6 C 22,3 C 16,0 C 19,4 C 19,4 C 5,8 C 68 % 62 % 100 % 1015,2 hPa 0,0 l/m 3,7 km/h (1 Bft) NO 45 5 min 7,8 C 19,4 C 5,0 km/h (1 Bft)
16.04.2015 16:35 13,6 C 22,3 C 16,0 C 19,4 C 19,4 C 5,8 C 68 % 62 % 100 % 1015,2 hPa 0,0 l/m 4,0 km/h (1 Bft) N-NO 22 5 min 7,8 C 19,4 C 5,3 km/h (1 Bft)
16.04.2015 16:40 13,9 C 22,3 C 16,1 C 19,4 C 19,4 C 5,5 C 68 % 63 % 100 % 1014,4 hPa 0,0 l/m 3,2 km/h (1 Bft) N-NO 22 5 min 8,1 C 19,4 C 6,8 km/h (2 Bft)
16.04.2015 16:45 13,7 C 22,3 C 15,8 C 18,5 C 18,5 C 4,8 C 66 % 61 % 100 % 1014,4 hPa 0,0 l/m 2,3 km/h (1 Bft) NO 45 5 min 7,5 C 18,5 C 1,6 km/h (1 Bft)
16.04.2015 16:50 13,6 C 22,3 C 15,6 C 17,9 C 17,9 C 4,3 C 67 % 62 % 100 % 1014,4 hPa 0,0 l/m 2,1 km/h (1 Bft) N-NO 22 5 min 7,6 C 17,9 C 0,0 km/h (0 Bft)
16.04.2015 16:55 13,5 C 22,3 C 15,2 C 16,6 C 16,6 C 3,1 C 67 % 63 % 82 % 1014,4 hPa 0,0 l/m 2,9 km/h (1 Bft) N-NW 337 0 min 7,5 C 16,6 C 6,4 km/h (2 Bft)
16.04.2015 17:00 13,4 C 22,3 C 15,0 C 16,1 C 16,1 C 2,7 C 67 % 63 % 71 % 1015,2 hPa 0,0 l/m 3,1 km/h (1 Bft) NW 315 0 min 7,4 C 16,1 C 0,0 km/h (0 Bft)
16.04.2015 17:05 13,2 C 22,3 C 14,9 C 15,6 C 15,6 C 2,4 C 68 % 64 % 63 % 1015,2 hPa 0,0 l/m 2,1 km/h (1 Bft) N-NW 337 0 min 7,4 C 15,6 C 2,9 km/h (1 Bft)
16.04.2015 17:10 13,3 C 22,3 C 14,9 C 15,3 C 15,3 C 2,0 C 68 % 64 % 53 % 1015,2 hPa 0,0 l/m 2,3 km/h (1 Bft) N-NW 337 0 min 7,5 C 15,3 C 5,3 km/h (1 Bft)
16.04.2015 17:15 13,1 C 22,3 C 14,5 C 15,0 C 15,0 C 1,9 C 68 % 64 % 50 % 1015,2 hPa 0,0 l/m 3,5 km/h (1 Bft) N-NO 22 0 min 7,3 C 15,0 C 8,5 km/h (2 Bft)
16.04.2015 17:20 13,0 C 22,3 C 14,4 C 14,7 C 14,7 C 1,7 C 68 % 64 % 45 % 1014,8 hPa 0,0 l/m 3,1 km/h (1 Bft) N 360 0 min 7,2 C 14,7 C 0,0 km/h (0 Bft)
16.04.2015 17:25 13,1 C 22,4 C 14,7 C 14,8 C 14,8 C 1,7 C 67 % 65 % 45 % 1014,8 hPa 0,0 l/m 3,1 km/h (1 Bft) W-SW 247 0 min 7,1 C 14,8 C 1,8 km/h (1 Bft)
16.04.2015 17:30 13,1 C 22,4 C 14,7 C 14,8 C 14,8 C 1,7 C 68 % 65 % 45 % 1014,8 hPa 0,0 l/m 2,7 km/h (1 Bft) W-SW 247 0 min 7,3 C 14,8 C 4,0 km/h (1 Bft)
16.04.2015 17:35 12,9 C 22,4 C 14,4 C 14,4 C 14,4 C 1,5 C 68 % 65 % 39 % 1014,8 hPa 0,0 l/m 3,2 km/h (1 Bft) S 180 0 min 7,1 C 14,4 C 2,6 km/h (1 Bft)
16.04.2015 17:40 12,9 C 22,4 C 14,4 C 14,3 C 14,3 C 1,4 C 68 % 65 % 37 % 1014,7 hPa 0,0 l/m 3,4 km/h (1 Bft) N-NO 22 0 min 7,1 C 14,3 C 2,6 km/h (1 Bft)
16.04.2015 17:45 12,9 C 22,4 C 14,3 C 14,3 C 14,3 C 1,4 C 68 % 66 % 37 % 1014,7 hPa 0,0 l/m 1,9 km/h (1 Bft) N-NW 337 0 min 7,1 C 14,3 C 2,3 km/h (1 Bft)
16.04.2015 17:50 12,9 C 22,5 C 14,1 C 14,3 C 14,3 C 1,4 C 68 % 65 % 37 % 1014,7 hPa 0,0 l/m 1,6 km/h (1 Bft) SO 135 0 min 7,1 C 14,3 C 0,0 km/h (0 Bft)
16.04.2015 17:55 13,1 C 22,5 C 14,1 C 14,4 C 14,4 C 1,3 C 68 % 66 % 34 % 1014,7 hPa 0,0 l/m 1,0 km/h (0 Bft) O-NO 67 0 min 7,3 C 14,4 C 2,1 km/h (1 Bft)
16.04.2015 18:00 12,9 C 22,5 C 14,0 C 14,3 C 14,3 C 1,4 C 68 % 66 % 37 % 1014,4 hPa 0,0 l/m 1,6 km/h (1 Bft) N-NW 337 0 min 7,1 C 14,3 C 5,8 km/h (2 Bft)
16.04.2015 18:05 12,8 C 22,5 C 13,6 C 14,0 C 14,0 C 1,2 C 68 % 66 % 32 % 1014,4 hPa 0,0 l/m 3,5 km/h (1 Bft) NW 315 0 min 7,0 C 14,0 C 8,2 km/h (2 Bft)
16.04.2015 18:10 12,7 C 22,5 C 13,5 C 13,8 C 13,8 C 1,1 C 68 % 67 % 29 % 1014,4 hPa 0,0 l/m 3,7 km/h (1 Bft) N 360 0 min 6,9 C 13,8 C 2,9 km/h (1 Bft)
16.04.2015 18:15 12,7 C 22,5 C 13,6 C 13,8 C 13,8 C 1,1 C 68 % 67 % 29 % 1014,4 hPa 0,0 l/m 2,4 km/h (1 Bft) N-NO 22 0 min 6,9 C 13,8 C 1,8 km/h (1 Bft)
16.04.2015 18:20 12,6 C 22,5 C 13,7 C 13,9 C 13,9 C 1,3 C 69 % 67 % 34 % 1014,4 hPa 0,0 l/m 1,4 km/h (1 Bft) SW 225 0 min 7,1 C 13,9 C 3,4 km/h (1 Bft)
16.04.2015 18:25 12,7 C 22,5 C 13,9 C 14,6 C 14,6 C 1,9 C 68 % 67 % 50 % 1014,4 hPa 0,0 l/m 1,8 km/h (1 Bft) N-NW 337 0 min 6,9 C 14,6 C 3,9 km/h (1 Bft)
16.04.2015 18:30 12,8 C 22,5 C 13,6 C 14,5 C 14,5 C 1,7 C 68 % 66 % 45 % 1014,4 hPa 0,0 l/m 2,1 km/h (1 Bft) N-NW 337 0 min 7,0 C 14,5 C 5,6 km/h (1 Bft)
16.04.2015 18:35 12,6 C 22,5 C 13,5 C 13,9 C 13,9 C 1,3 C 68 % 67 % 34 % 1014,4 hPa 0,0 l/m 2,4 km/h (1 Bft) O-NO 67 0 min 6,9 C 13,9 C 0,0 km/h (0 Bft)
16.04.2015 18:42 12,7 C 22,5 C 13,2 C 13,4 C 13,4 C 0,7 C 68 % 67 % 18 % 1014,4 hPa 0,0 l/m 1,4 km/h (1 Bft) N 0 0 min 6,9 C 13,4 C 2,1 km/h (1 Bft)
16.04.2015 18:50 12,7 C 22,5 C 13,2 C 13,3 C 13,3 C 0,6 C 68 % 67 % 16 % 1014,4 hPa 0,0 l/m 1,6 km/h (1 Bft) NO 45 0 min 6,9 C 13,3 C 0,0 km/h (0 Bft)
16.04.2015 18:55 12,7 C 22,5 C 13,3 C 13,1 C 13,1 C 0,4 C 68 % 68 % 11 % 1014,4 hPa 0,0 l/m 0,8 km/h (0 Bft) NW 315 0 min 6,9 C 13,1 C 0,0 km/h (0 Bft)
16.04.2015 19:00 12,7 C 22,5 C 13,2 C 13,1 C 13,1 C 0,4 C 68 % 68 % 11 % 1014,6 hPa 0,0 l/m 0,3 km/h (0 Bft) N-NW 337 0 min 6,9 C 13,1 C 1,9 km/h (1 Bft)
16.04.2015 19:05 12,6 C 22,5 C 13,1 C 13,0 C 13,0 C 0,4 C 67 % 67 % 11 % 1014,6 hPa 0,0 l/m 1,0 km/h (0 Bft) NO 45 0 min 6,6 C 13,0 C 0,0 km/h (0 Bft)
16.04.2015 19:10 12,5 C 22,5 C 12,9 C 12,8 C 12,8 C 0,3 C 67 % 67 % 8 % 1014,6 hPa 0,0 l/m 1,3 km/h (1 Bft) S-SO 157 0 min 6,5 C 12,8 C 4,8 km/h (1 Bft)
16.04.2015 19:15 12,4 C 22,5 C 12,8 C 12,7 C 12,7 C 0,3 C 67 % 67 % 8 % 1014,6 hPa 0,0 l/m 1,4 km/h (1 Bft) NW 315 0 min 6,4 C 12,7 C 2,9 km/h (1 Bft)
16.04.2015 19:20 12,5 C 22,5 C 12,7 C 12,5 C 12,4 C 0,0 C 67 % 67 % 0 % 1014,6 hPa 0,0 l/m 1,9 km/h (1 Bft) N-NW 337 0 min 6,5 C 12,4 C 2,1 km/h (1 Bft)
16.04.2015 19:25 12,3 C 22,5 C 12,5 C 12,3 C 12,3 C 0,0 C 67 % 68 % 0 % 1014,6 hPa 0,0 l/m 2,1 km/h (1 Bft) W-SW 247 0 min 6,4 C 12,3 C 1,8 km/h (1 Bft)
16.04.2015 19:30 12,3 C 22,5 C 12,4 C 12,3 C 12,3 C 0,0 C 67 % 68 % 0 % 1014,6 hPa 0,0 l/m 2,3 km/h (1 Bft) N-NW 337 0 min 6,4 C 12,3 C 4,3 km/h (1 Bft)
16.04.2015 19:35 12,2 C 22,5 C 12,3 C 12,2 C 12,1 C 0,0 C 66 % 68 % 0 % 1014,6 hPa 0,0 l/m 2,4 km/h (1 Bft) N-NO 22 0 min 6,0 C 12,1 C 5,6 km/h (1 Bft)
16.04.2015 19:40 12,1 C 22,5 C 12,2 C 12,0 C 11,9 C 0,0 C 66 % 68 % 0 % 1014,5 hPa 0,0 l/m 1,9 km/h (1 Bft) N-NO 22 0 min 5,9 C 11,9 C 1,8 km/h (1 Bft)
16.04.2015 19:45 12,1 C 22,5 C 12,1 C 12,0 C 11,8 C 0,0 C 66 % 68 % 0 % 1014,5 hPa 0,0 l/m 0,5 km/h (0 Bft) O-NO 67 0 min 5,9 C 11,8 C 0,0 km/h (0 Bft)
16.04.2015 19:50 12,0 C 22,5 C 12,0 C 11,9 C 11,8 C 0,0 C 67 % 68 % 0 % 1014,5 hPa 0,0 l/m 0,5 km/h (0 Bft) N-NO 22 0 min 6,1 C 11,8 C 0,0 km/h (0 Bft)
16.04.2015 19:55 12,0 C 22,5 C 12,0 C 11,9 C 11,6 C 0,0 C 66 % 68 % 0 % 1014,5 hPa 0,0 l/m 0,5 km/h (0 Bft) W-NW 292 0 min 5,8 C 11,6 C 1,9 km/h (1 Bft)
16.04.2015 20:00 12,0 C 22,5 C 11,9 C 11,8 C 11,5 C 0,0 C 66 % 68 % 0 % 1014,8 hPa 0,0 l/m 0,5 km/h (0 Bft) SO 135 0 min 5,8 C 11,5 C 0,0 km/h (0 Bft)
16.04.2015 20:05 11,9 C 22,5 C 11,9 C 11,8 C 11,5 C 0,0 C 66 % 68 % 0 % 1014,8 hPa 0,0 l/m 1,0 km/h (0 Bft) NW 315 0 min 5,8 C 11,5 C 2,9 km/h (1 Bft)
16.04.2015 20:10 11,9 C 22,5 C 11,7 C 11,7 C 11,2 C 0,0 C 66 % 68 % 0 % 1014,8 hPa 0,0 l/m 0,8 km/h (0 Bft) NW 315 0 min 5,8 C 11,2 C 0,0 km/h (0 Bft)
16.04.2015 20:15 11,7 C 22,5 C 11,7 C 11,5 C 11,0 C 0,0 C 66 % 68 % 0 % 1014,8 hPa 0,0 l/m 0,5 km/h (0 Bft) NO 45 0 min 5,6 C 11,0 C 0,0 km/h (0 Bft)
16.04.2015 20:20 11,7 C 22,5 C 11,5 C 11,5 C 11,0 C 0,0 C 65 % 68 % 0 % 1014,9 hPa 0,0 l/m 0,2 km/h (0 Bft) O-NO 67 0 min 5,3 C 11,0 C 0,0 km/h (0 Bft)
16.04.2015 20:25 11,5 C 22,5 C 11,4 C 11,3 C 10,9 C 0,0 C 65 % 68 % 0 % 1014,9 hPa 0,0 l/m 0,3 km/h (0 Bft) NO 45 0 min 5,2 C 10,9 C 2,9 km/h (1 Bft)
16.04.2015 20:30 11,5 C 22,5 C 11,5 C 11,3 C 11,0 C 0,0 C 64 % 67 % 0 % 1014,9 hPa 0,0 l/m 1,1 km/h (1 Bft) S-SW 202 0 min 4,9 C 11,0 C 3,1 km/h (1 Bft)
16.04.2015 20:35 11,4 C 22,5 C 11,5 C 11,3 C 11,0 C 0,0 C 63 % 66 % 0 % 1014,9 hPa 0,0 l/m 1,4 km/h (1 Bft) N-NO 22 0 min 4,6 C 11,0 C 0,0 km/h (0 Bft)
16.04.2015 20:40 11,5 C 22,5 C 11,3 C 11,3 C 11,0 C 0,0 C 63 % 66 % 0 % 1015,1 hPa 0,0 l/m 0,5 km/h (0 Bft) SW 225 0 min 4,7 C 11,0 C 0,0 km/h (0 Bft)
16.04.2015 20:45 11,3 C 22,5 C 11,3 C 11,2 C 11,0 C 0,0 C 61 % 64 % 0 % 1015,1 hPa 0,0 l/m 0,5 km/h (0 Bft) W-NW 292 0 min 4,1 C 11,0 C 0,0 km/h (0 Bft)
16.04.2015 20:50 11,3 C 22,5 C 11,2 C 11,2 C 11,0 C 0,0 C 61 % 64 % 0 % 1015,1 hPa 0,0 l/m 0,6 km/h (0 Bft) SW 225 0 min 4,1 C 11,0 C 3,1 km/h (1 Bft)
16.04.2015 20:55 11,2 C 22,5 C 11,2 C 11,1 C 11,0 C 0,0 C 60 % 63 % 0 % 1015,1 hPa 0,0 l/m 0,5 km/h (0 Bft) W-NW 292 0 min 3,7 C 11,0 C 2,6 km/h (1 Bft)
16.04.2015 21:00 11,2 C 22,5 C 11,1 C 11,1 C 10,9 C 0,0 C 59 % 62 % 0 % 1015,1 hPa 0,0 l/m 1,3 km/h (1 Bft) O-SO 112 0 min 3,5 C 10,9 C 1,9 km/h (1 Bft)
16.04.2015 21:05 11,2 C 22,5 C 11,1 C 11,1 C 10,8 C 0,0 C 58 % 61 % 0 % 1015,1 hPa 0,0 l/m 1,6 km/h (1 Bft) NW 315 0 min 3,2 C 10,8 C 4,3 km/h (1 Bft)
16.04.2015 21:10 11,1 C 22,4 C 11,0 C 11,0 C 10,8 C 0,0 C 58 % 61 % 0 % 1015,1 hPa 0,0 l/m 1,4 km/h (1 Bft) W-NW 292 0 min 3,2 C 10,8 C 0,0 km/h (0 Bft)
16.04.2015 21:15 11,1 C 22,4 C 10,9 C 11,0 C 10,7 C 0,0 C 59 % 62 % 0 % 1015,1 hPa 0,0 l/m 1,0 km/h (0 Bft) NW 315 0 min 3,4 C 10,7 C 1,8 km/h (1 Bft)
16.04.2015 21:20 11,0 C 22,4 C 10,8 C 10,9 C 10,6 C 0,0 C 58 % 62 % 0 % 1015,2 hPa 0,0 l/m 0,8 km/h (0 Bft) W-SW 247 0 min 3,1 C 10,6 C 2,7 km/h (1 Bft)
16.04.2015 21:25 10,9 C 22,4 C 10,9 C 10,8 C 10,5 C 0,0 C 58 % 62 % 0 % 1015,2 hPa 0,0 l/m 1,1 km/h (1 Bft) N-NW 337 0 min 3,0 C 10,5 C 0,0 km/h (0 Bft)
16.04.2015 21:30 10,8 C 22,4 C 10,7 C 10,7 C 10,5 C 0,0 C 58 % 61 % 0 % 1015,2 hPa 0,0 l/m 0,6 km/h (0 Bft) S 180 0 min 2,9 C 10,5 C 0,0 km/h (0 Bft)
16.04.2015 21:35 10,8 C 22,4 C 10,7 C 10,7 C 10,4 C 0,0 C 57 % 61 % 0 % 1015,2 hPa 0,0 l/m 0,5 km/h (0 Bft) W 270 0 min 2,6 C 10,4 C 3,2 km/h (1 Bft)
16.04.2015 21:42 10,7 C 22,4 C 10,7 C 10,6 C 10,4 C 0,0 C 57 % 61 % 0 % 1015,2 hPa 0,0 l/m 1,3 km/h (1 Bft) N 0 0 min 2,5 C 10,4 C 4,2 km/h (1 Bft)
16.04.2015 21:50 10,7 C 22,4 C 10,5 C 10,6 C 10,3 C 0,0 C 57 % 61 % 0 % 1015,2 hPa 0,0 l/m 1,6 km/h (1 Bft) W 270 0 min 2,5 C 10,3 C 2,6 km/h (1 Bft)
16.04.2015 21:55 10,7 C 22,3 C 10,4 C 10,5 C 10,2 C 0,0 C 58 % 62 % 0 % 1015,2 hPa 0,0 l/m 1,6 km/h (1 Bft) W-SW 247 0 min 2,8 C 10,2 C 2,9 km/h (1 Bft)
16.04.2015 22:00 10,5 C 22,3 C 10,4 C 10,4 C 10,2 C 0,0 C 58 % 62 % 0 % 1015,3 hPa 0,0 l/m 1,6 km/h (1 Bft) SW 225 0 min 2,6 C 10,2 C 1,9 km/h (1 Bft)
16.04.2015 22:05 10,5 C 22,3 C 10,5 C 10,4 C 10,1 C 0,0 C 59 % 63 % 0 % 1015,3 hPa 0,0 l/m 1,6 km/h (1 Bft) W 270 0 min 2,8 C 10,1 C 2,1 km/h (1 Bft)
16.04.2015 22:10 10,4 C 22,3 C 10,4 C 10,3 C 10,1 C 0,0 C 59 % 63 % 0 % 1015,3 hPa 0,0 l/m 1,6 km/h (1 Bft) SW 225 0 min 2,7 C 10,1 C 2,4 km/h (1 Bft)
16.04.2015 22:15 10,4 C 22,3 C 10,2 C 10,3 C 10,0 C 0,0 C 60 % 64 % 0 % 1015,3 hPa 0,0 l/m 2,4 km/h (1 Bft) SW 225 0 min 3,0 C 10,0 C 2,3 km/h (1 Bft)
16.04.2015 22:20 10,3 C 22,3 C 10,1 C 10,2 C 9,9 C 0,0 C 60 % 64 % 0 % 1015,6 hPa 0,0 l/m 2,6 km/h (1 Bft) W-SW 247 0 min 2,9 C 9,9 C 2,6 km/h (1 Bft)
16.04.2015 22:25 10,2 C 22,3 C 10,0 C 10,0 C 9,7 C 0,0 C 61 % 65 % 0 % 1015,6 hPa 0,0 l/m 1,9 km/h (1 Bft) SW 225 0 min 3,0 C 9,7 C 1,6 km/h (1 Bft)
16.04.2015 22:30 10,3 C 22,3 C 10,0 C 10,1 C 9,7 C 0,0 C 61 % 65 % 0 % 1015,6 hPa 0,0 l/m 1,6 km/h (1 Bft) W-SW 247 0 min 3,1 C 9,7 C 0,0 km/h (0 Bft)
16.04.2015 22:35 10,1 C 22,3 C 9,8 C 9,9 C 9,5 C 0,0 C 62 % 66 % 0 % 1015,6 hPa 0,0 l/m 1,0 km/h (0 Bft) W-SW 247 0 min 3,2 C 9,5 C 1,8 km/h (1 Bft)
16.04.2015 22:40 10,0 C 22,2 C 9,8 C 9,8 C 9,3 C 0,0 C 62 % 66 % 0 % 1015,6 hPa 0,0 l/m 0,8 km/h (0 Bft) W-SW 247 0 min 3,1 C 9,3 C 0,0 km/h (0 Bft)
16.04.2015 22:45 9,9 C 22,2 C 9,7 C 9,7 C 9,3 C 0,0 C 62 % 67 % 0 % 1015,6 hPa 0,0 l/m 0,5 km/h (0 Bft) W-SW 247 0 min 3,0 C 9,3 C 0,0 km/h (0 Bft)
16.04.2015 22:50 9,9 C 22,2 C 9,7 C 9,7 C 9,3 C 0,0 C 63 % 67 % 0 % 1015,6 hPa 0,0 l/m 0,5 km/h (0 Bft) W-SW 247 0 min 3,2 C 9,3 C 2,7 km/h (1 Bft)
16.04.2015 22:55 9,9 C 22,2 C 9,7 C 9,7 C 9,3 C 0,0 C 63 % 68 % 0 % 1015,6 hPa 0,0 l/m 1,6 km/h (1 Bft) SW 225 0 min 3,2 C 9,3 C 3,7 km/h (1 Bft)
16.04.2015 23:00 9,8 C 22,2 C 9,6 C 9,6 C 9,2 C 0,0 C 63 % 68 % 0 % 1015,5 hPa 0,0 l/m 2,1 km/h (1 Bft) W-SW 247 0 min 3,1 C 9,2 C 2,6 km/h (1 Bft)
16.04.2015 23:05 9,7 C 22,2 C 9,6 C 9,5 C 9,0 C 0,0 C 65 % 68 % 0 % 1015,5 hPa 0,0 l/m 1,1 km/h (1 Bft) W-NW 292 0 min 3,4 C 9,0 C 0,0 km/h (0 Bft)
16.04.2015 23:10 9,6 C 22,2 C 9,4 C 9,4 C 9,0 C 0,0 C 65 % 69 % 0 % 1015,5 hPa 0,0 l/m 1,0 km/h (0 Bft) W-SW 247 0 min 3,4 C 9,0 C 1,8 km/h (1 Bft)
16.04.2015 23:15 9,5 C 22,2 C 9,3 C 9,2 C 8,7 C 0,0 C 65 % 69 % 0 % 1015,5 hPa 0,0 l/m 1,6 km/h (1 Bft) SW 225 0 min 3,3 C 8,7 C 0,0 km/h (0 Bft)
16.04.2015 23:20 9,5 C 22,1 C 9,1 C 9,2 C 8,5 C 0,0 C 66 % 69 % 0 % 1015,8 hPa 0,0 l/m 1,1 km/h (1 Bft) NW 315 0 min 3,5 C 8,5 C 0,0 km/h (0 Bft)
16.04.2015 23:25 9,2 C 22,1 C 8,9 C 8,8 C 8,1 C 0,0 C 66 % 69 % 0 % 1015,8 hPa 0,0 l/m 0,2 km/h (0 Bft) NW 315 0 min 3,2 C 8,1 C 0,0 km/h (0 Bft)
16.04.2015 23:30 9,2 C 22,1 C 8,7 C 8,8 C 8,0 C 0,0 C 66 % 70 % 0 % 1015,8 hPa 0,0 l/m 0,0 km/h (0 Bft) S 180 0 min 3,2 C 8,0 C 0,0 km/h (0 Bft)
16.04.2015 23:35 9,1 C 22,1 C 8,7 C 8,7 C 7,8 C 0,0 C 66 % 70 % 0 % 1015,8 hPa 0,0 l/m 0,0 km/h (0 Bft) O-NO 67 0 min 3,1 C 7,8 C 0,0 km/h (0 Bft)
16.04.2015 23:40 8,9 C 22,2 C 8,6 C 8,5 C 7,7 C 0,0 C 67 % 70 % 0 % 1015,8 hPa 0,0 l/m 0,0 km/h (0 Bft) O-NO 67 0 min 3,1 C 7,7 C 0,0 km/h (0 Bft)
16.04.2015 23:45 8,8 C 22,1 C 8,5 C 8,4 C 7,6 C 0,0 C 67 % 71 % 0 % 1015,8 hPa 0,0 l/m 0,0 km/h (0 Bft) S 180 0 min 3,0 C 7,6 C 1,6 km/h (1 Bft)
16.04.2015 23:50 8,7 C 22,1 C 8,6 C 8,4 C 7,7 C 0,0 C 67 % 71 % 0 % 1015,8 hPa 0,0 l/m 0,2 km/h (0 Bft) SW 225 0 min 2,9 C 7,7 C 0,0 km/h (0 Bft)
16.04.2015 23:55 8,7 C 22,1 C 8,5 C 8,4 C 7,7 C 0,0 C 67 % 71 % 0 % 1015,8 hPa 0,0 l/m 0,2 km/h (0 Bft) N-NO 22 0 min 2,9 C 7,7 C 0,0 km/h (0 Bft)
17.04.2015 00:00 8,7 C 22,1 C 8,4 C 8,4 C 7,7 C 0,0 C 68 % 71 % 0 % 1015,4 hPa 0,0 l/m 0,0 km/h (0 Bft) NW 315 0 min 3,1 C 7,7 C 0,0 km/h (0 Bft)
17.04.2015 00:05 8,5 C 22,1 C 8,4 C 8,2 C 7,7 C 0,0 C 68 % 71 % 0 % 1015,4 hPa 0,0 l/m 0,0 km/h (0 Bft) NO 45 0 min 2,9 C 7,7 C 0,0 km/h (0 Bft)
17.04.2015 00:10 8,4 C 22,1 C 8,4 C 8,1 C 7,6 C 0,0 C 68 % 72 % 0 % 1015,4 hPa 0,0 l/m 0,0 km/h (0 Bft) O 90 0 min 2,8 C 7,6 C 0,0 km/h (0 Bft)
17.04.2015 00:15 8,4 C 22,1 C 8,3 C 8,1 C 7,6 C 0,0 C 67 % 72 % 0 % 1015,4 hPa 0,0 l/m 0,0 km/h (0 Bft) O-SO 112 0 min 2,6 C 7,6 C 0,0 km/h (0 Bft)
17.04.2015 00:20 8,5 C 22,1 C 8,3 C 8,2 C 7,7 C 0,0 C 68 % 72 % 0 % 1015,4 hPa 0,0 l/m 0,0 km/h (0 Bft) O-NO 67 0 min 2,9 C 7,7 C 0,0 km/h (0 Bft)
17.04.2015 00:25 8,5 C 22,0 C 8,3 C 8,2 C 7,6 C 0,0 C 67 % 72 % 0 % 1015,4 hPa 0,0 l/m 0,0 km/h (0 Bft) W-SW 247 0 min 2,7 C 7,6 C 0,0 km/h (0 Bft)
17.04.2015 00:30 8,4 C 22,0 C 8,3 C 8,1 C 7,6 C 0,0 C 67 % 72 % 0 % 1015,4 hPa 0,0 l/m 0,0 km/h (0 Bft) NO 45 0 min 2,6 C 7,6 C 0,0 km/h (0 Bft)
17.04.2015 00:35 8,5 C 22,0 C 8,3 C 8,2 C 7,7 C 0,0 C 68 % 72 % 0 % 1015,4 hPa 0,0 l/m 0,0 km/h (0 Bft) O-SO 112 0 min 2,9 C 7,7 C 0,0 km/h (0 Bft)
17.04.2015 00:43 8,4 C 22,0 C 8,1 C 8,2 C 7,7 C 0,0 C 67 % 72 % 0 % 1015,2 hPa 0,0 l/m 0,0 km/h (0 Bft) N 0 0 min 2,6 C 7,7 C 0,0 km/h (0 Bft)
17.04.2015 00:50 8,4 C 22,0 C 8,1 C 8,1 C 7,6 C 0,0 C 67 % 72 % 0 % 1015,2 hPa 0,0 l/m 0,0 km/h (0 Bft) O-NO 67 0 min 2,6 C 7,6 C 0,0 km/h (0 Bft)
_ Min-Zeit 06:50 09:00 06:35 06:50 05:55 01:00 21:35 14:40 01:00 04:00 - 01:00 - - - 21:42 05:55 01:00
Minimum _ 7,6 C 21,4 C 7,7 C 7,5 C 7,3 C 0,0 C 57 % 52 % 0 % 1013,6 hPa - 0,0 km/h (0 Bft) - - - 2,5 C 7,3 C 0,0 km/h (0 Bft)
_ Max-Zeit 14:40 01:00 14:40 14:40 14:40 14:40 07:05 07:05 07:40 11:00 01:00 13:35 - - 09:50 14:40 14:40 14:55
Maximum _ 14,9 C 22,8 C 20,6 C 21,9 C 21,9 C 7,0 C 81 % 84 % 100 % 1016,4 hPa 0,0 l/m 6,9 km/h
SW (2 Bft)
- - 9 min 8,4 C 21,9 C 15,0 km/h
N-NO (3 Bft)
Durchschnitt _ 11,3 C 22,1 C 12,3 C 13,3 C 13,1 C 2,1 C 69 % 69 % 42 % 1014,9 hPa #0,0 l/m 1,8 km/h (1 Bft) W-SW - #0 min. 5,9 C 13,1 C 2,4 km/h (1 Bft)
2015 www.wetterstation-wechselburg.de